Year,Month,Day,Hour,Minute,Value (Times are PST for insolation in W/m^2)
2018,09,11,00,00,0.00
2018,09,11,00,01,0.00
2018,09,11,00,02,0.00
2018,09,11,00,03,0.00
2018,09,11,00,04,0.00
2018,09,11,00,05,0.00
2018,09,11,00,06,0.00
2018,09,11,00,07,0.00
2018,09,11,00,08,0.00
2018,09,11,00,09,0.00
2018,09,11,00,10,0.00
2018,09,11,00,11,0.00
2018,09,11,00,12,0.00
2018,09,11,00,13,0.00
2018,09,11,00,14,0.00
2018,09,11,00,15,0.00
2018,09,11,00,16,0.00
2018,09,11,00,17,0.00
2018,09,11,00,18,0.00
2018,09,11,00,19,0.00
2018,09,11,00,20,0.00
2018,09,11,00,21,0.00
2018,09,11,00,22,0.00
2018,09,11,00,23,0.00
2018,09,11,00,24,0.00
2018,09,11,00,25,0.00
2018,09,11,00,26,0.00
2018,09,11,00,27,0.00
2018,09,11,00,28,0.00
2018,09,11,00,29,0.00
2018,09,11,00,30,0.00
2018,09,11,00,31,0.00
2018,09,11,00,32,0.00
2018,09,11,00,33,0.00
2018,09,11,00,34,0.00
2018,09,11,00,35,0.00
2018,09,11,00,36,0.00
2018,09,11,00,37,0.00
2018,09,11,00,38,0.00
2018,09,11,00,39,0.00
2018,09,11,00,40,0.00
2018,09,11,00,41,0.00
2018,09,11,00,42,0.00
2018,09,11,00,43,0.00
2018,09,11,00,44,0.00
2018,09,11,00,45,0.00
2018,09,11,00,46,0.00
2018,09,11,00,47,0.00
2018,09,11,00,48,0.00
2018,09,11,00,49,0.00
2018,09,11,00,50,0.00
2018,09,11,00,51,0.00
2018,09,11,00,52,0.00
2018,09,11,00,53,0.00
2018,09,11,00,54,0.00
2018,09,11,00,55,0.00
2018,09,11,00,56,0.00
2018,09,11,00,57,0.00
2018,09,11,00,58,0.00
2018,09,11,00,59,0.00
2018,09,11,01,00,0.00
2018,09,11,01,01,0.00
2018,09,11,01,02,0.00
2018,09,11,01,03,0.00
2018,09,11,01,04,0.00
2018,09,11,01,05,0.00
2018,09,11,01,06,0.00
2018,09,11,01,07,0.00
2018,09,11,01,08,0.00
2018,09,11,01,09,0.00
2018,09,11,01,10,0.00
2018,09,11,01,11,0.00
2018,09,11,01,12,0.00
2018,09,11,01,13,0.00
2018,09,11,01,14,0.00
2018,09,11,01,15,0.00
2018,09,11,01,16,0.00
2018,09,11,01,17,0.00
2018,09,11,01,18,0.00
2018,09,11,01,19,0.00
2018,09,11,01,20,0.00
2018,09,11,01,21,0.00
2018,09,11,01,22,0.00
2018,09,11,01,23,0.00
2018,09,11,01,24,0.00
2018,09,11,01,25,0.00
2018,09,11,01,26,0.00
2018,09,11,01,27,0.00
2018,09,11,01,28,0.00
2018,09,11,01,29,0.00
2018,09,11,01,30,0.00
2018,09,11,01,31,0.00
2018,09,11,01,32,0.00
2018,09,11,01,33,0.00
2018,09,11,01,34,0.00
2018,09,11,01,35,0.00
2018,09,11,01,36,0.00
2018,09,11,01,37,0.00
2018,09,11,01,38,0.00
2018,09,11,01,39,0.00
2018,09,11,01,40,0.00
2018,09,11,01,41,0.00
2018,09,11,01,42,0.00
2018,09,11,01,43,0.00
2018,09,11,01,44,0.00
2018,09,11,01,45,0.00
2018,09,11,01,46,0.00
2018,09,11,01,47,0.00
2018,09,11,01,48,0.00
2018,09,11,01,49,0.00
2018,09,11,01,50,0.00
2018,09,11,01,51,0.00
2018,09,11,01,52,0.00
2018,09,11,01,53,0.00
2018,09,11,01,54,0.00
2018,09,11,01,55,0.00
2018,09,11,01,56,0.00
2018,09,11,01,57,0.00
2018,09,11,01,58,0.00
2018,09,11,01,59,0.00
2018,09,11,02,00,0.00
2018,09,11,02,01,0.00
2018,09,11,02,02,0.00
2018,09,11,02,03,0.00
2018,09,11,02,04,0.00
2018,09,11,02,05,0.00
2018,09,11,02,06,0.00
2018,09,11,02,07,0.00
2018,09,11,02,08,0.00
2018,09,11,02,09,0.00
2018,09,11,02,10,0.00
2018,09,11,02,11,0.00
2018,09,11,02,12,0.00
2018,09,11,02,13,0.00
2018,09,11,02,14,0.00
2018,09,11,02,15,0.00
2018,09,11,02,16,0.00
2018,09,11,02,17,0.00
2018,09,11,02,18,0.00
2018,09,11,02,19,0.00
2018,09,11,02,20,0.00
2018,09,11,02,21,0.00
2018,09,11,02,22,0.00
2018,09,11,02,23,0.00
2018,09,11,02,24,0.00
2018,09,11,02,25,0.00
2018,09,11,02,26,0.00
2018,09,11,02,27,0.00
2018,09,11,02,28,0.00
2018,09,11,02,29,0.00
2018,09,11,02,30,0.00
2018,09,11,02,31,0.00
2018,09,11,02,32,0.00
2018,09,11,02,33,0.00
2018,09,11,02,34,0.00
2018,09,11,02,35,0.00
2018,09,11,02,36,0.00
2018,09,11,02,37,0.00
2018,09,11,02,38,0.00
2018,09,11,02,39,0.00
2018,09,11,02,40,0.00
2018,09,11,02,41,0.00
2018,09,11,02,42,0.00
2018,09,11,02,43,0.00
2018,09,11,02,44,0.00
2018,09,11,02,45,0.00
2018,09,11,02,46,0.00
2018,09,11,02,47,0.00
2018,09,11,02,48,0.00
2018,09,11,02,49,0.00
2018,09,11,02,50,0.00
2018,09,11,02,51,0.00
2018,09,11,02,52,0.00
2018,09,11,02,53,0.00
2018,09,11,02,54,0.00
2018,09,11,02,55,0.00
2018,09,11,02,56,0.00
2018,09,11,02,57,0.00
2018,09,11,02,58,0.00
2018,09,11,02,59,0.00
2018,09,11,03,00,0.00
2018,09,11,03,01,0.00
2018,09,11,03,02,0.00
2018,09,11,03,03,0.00
2018,09,11,03,04,0.00
2018,09,11,03,05,0.00
2018,09,11,03,06,0.00
2018,09,11,03,07,0.00
2018,09,11,03,08,0.00
2018,09,11,03,09,0.00
2018,09,11,03,10,0.00
2018,09,11,03,11,0.00
2018,09,11,03,12,0.00
2018,09,11,03,13,0.00
2018,09,11,03,14,0.00
2018,09,11,03,15,0.00
2018,09,11,03,16,0.00
2018,09,11,03,17,0.00
2018,09,11,03,18,0.00
2018,09,11,03,19,0.00
2018,09,11,03,20,0.00
2018,09,11,03,21,0.00
2018,09,11,03,22,0.00
2018,09,11,03,23,0.00
2018,09,11,03,24,0.00
2018,09,11,03,25,0.00
2018,09,11,03,26,0.00
2018,09,11,03,27,0.00
2018,09,11,03,28,0.00
2018,09,11,03,29,0.00
2018,09,11,03,30,0.00
2018,09,11,03,31,0.00
2018,09,11,03,32,0.00
2018,09,11,03,33,0.00
2018,09,11,03,34,0.00
2018,09,11,03,35,0.00
2018,09,11,03,36,0.00
2018,09,11,03,37,0.00
2018,09,11,03,38,0.00
2018,09,11,03,39,0.00
2018,09,11,03,40,0.00
2018,09,11,03,41,0.00
2018,09,11,03,42,0.00
2018,09,11,03,43,0.00
2018,09,11,03,44,0.00
2018,09,11,03,45,0.00
2018,09,11,03,46,0.00
2018,09,11,03,47,0.00
2018,09,11,03,48,0.00
2018,09,11,03,49,0.00
2018,09,11,03,50,0.00
2018,09,11,03,51,0.00
2018,09,11,03,52,0.00
2018,09,11,03,53,0.00
2018,09,11,03,54,0.00
2018,09,11,03,55,0.00
2018,09,11,03,56,0.00
2018,09,11,03,57,0.00
2018,09,11,03,58,0.00
2018,09,11,03,59,0.00
2018,09,11,04,00,0.00
2018,09,11,04,01,0.00
2018,09,11,04,02,0.00
2018,09,11,04,03,0.00
2018,09,11,05,04,0.00
2018,09,11,05,05,0.00
2018,09,11,05,06,0.00
2018,09,11,05,07,0.00
2018,09,11,05,08,0.00
2018,09,11,05,09,0.00
2018,09,11,05,10,0.00
2018,09,11,05,11,0.00
2018,09,11,05,12,0.00
2018,09,11,05,13,0.00
2018,09,11,05,14,0.00
2018,09,11,05,15,0.00
2018,09,11,05,16,0.00
2018,09,11,05,17,0.00
2018,09,11,05,18,0.00
2018,09,11,05,19,0.00
2018,09,11,05,20,0.00
2018,09,11,05,21,0.00
2018,09,11,05,22,0.00
2018,09,11,05,23,0.00
2018,09,11,05,24,0.00
2018,09,11,05,25,0.00
2018,09,11,05,26,0.00
2018,09,11,05,27,0.00
2018,09,11,05,28,0.00
2018,09,11,05,29,0.00
2018,09,11,05,30,0.00
2018,09,11,05,31,0.00
2018,09,11,05,32,0.00
2018,09,11,05,33,0.00
2018,09,11,05,34,0.00
2018,09,11,05,35,0.00
2018,09,11,05,36,0.00
2018,09,11,05,37,0.00
2018,09,11,05,38,0.00
2018,09,11,05,39,0.00
2018,09,11,05,40,0.00
2018,09,11,05,41,0.00
2018,09,11,05,42,0.00
2018,09,11,05,43,0.00
2018,09,11,05,44,0.00
2018,09,11,05,45,0.00
2018,09,11,05,46,0.00
2018,09,11,05,47,0.00
2018,09,11,05,48,0.00
2018,09,11,05,49,0.00
2018,09,11,05,50,0.00
2018,09,11,05,51,0.00
2018,09,11,05,52,0.00
2018,09,11,05,53,0.00
2018,09,11,05,54,0.00
2018,09,11,05,55,0.00
2018,09,11,05,56,0.00
2018,09,11,05,57,0.00
2018,09,11,05,58,0.00
2018,09,11,05,59,0.00
2018,09,11,06,00,0.00
2018,09,11,06,01,0.00
2018,09,11,06,02,0.00
2018,09,11,06,03,0.00
2018,09,11,06,04,0.00
2018,09,11,06,05,0.00
2018,09,11,06,06,0.00
2018,09,11,06,07,0.00
2018,09,11,06,08,0.00
2018,09,11,06,09,0.00
2018,09,11,06,10,0.00
2018,09,11,06,11,0.00
2018,09,11,06,12,0.00
2018,09,11,06,13,0.00
2018,09,11,06,14,0.00
2018,09,11,06,15,0.00
2018,09,11,06,16,0.00
2018,09,11,06,17,0.00
2018,09,11,06,18,0.00
2018,09,11,06,19,0.00
2018,09,11,06,20,0.00
2018,09,11,06,21,0.00
2018,09,11,06,22,0.00
2018,09,11,06,23,0.00
2018,09,11,06,24,0.00
2018,09,11,06,25,0.00
2018,09,11,06,26,0.00
2018,09,11,06,27,0.00
2018,09,11,06,28,0.00
2018,09,11,06,29,0.00
2018,09,11,06,30,0.00
2018,09,11,06,31,0.00
2018,09,11,06,32,0.00
2018,09,11,06,33,0.00
2018,09,11,06,34,0.00
2018,09,11,06,35,0.00
2018,09,11,06,36,0.00
2018,09,11,06,37,0.00
2018,09,11,06,38,0.00
2018,09,11,06,39,0.00
2018,09,11,06,40,0.00
2018,09,11,06,41,0.00
2018,09,11,06,42,0.00
2018,09,11,06,43,1.50
2018,09,11,06,44,5.00
2018,09,11,06,45,6.10
2018,09,11,06,46,7.00
2018,09,11,06,47,7.00
2018,09,11,06,48,7.30
2018,09,11,06,49,9.00
2018,09,11,06,50,9.90
2018,09,11,06,51,11.00
2018,09,11,06,52,11.70
2018,09,11,06,53,12.00
2018,09,11,06,54,14.40
2018,09,11,06,55,16.00
2018,09,11,06,56,16.90
2018,09,11,06,57,18.60
2018,09,11,06,58,20.50
2018,09,11,06,59,21.10
2018,09,11,07,00,23.40
2018,09,11,07,01,25.00
2018,09,11,07,02,25.50
2018,09,11,07,03,27.30
2018,09,11,07,04,29.50
2018,09,11,07,05,31.90
2018,09,11,07,06,33.00
2018,09,11,07,07,33.00
2018,09,11,07,08,33.90
2018,09,11,07,09,36.30
2018,09,11,07,10,37.00
2018,09,11,07,11,38.90
2018,09,11,07,12,39.00
2018,09,11,07,13,39.00
2018,09,11,07,14,38.00
2018,09,11,07,15,35.60
2018,09,11,07,16,35.00
2018,09,11,07,17,35.00
2018,09,11,07,18,34.50
2018,09,11,07,19,32.60
2018,09,11,07,20,32.00
2018,09,11,07,21,32.70
2018,09,11,07,22,33.00
2018,09,11,07,23,34.90
2018,09,11,07,24,35.00
2018,09,11,07,25,35.90
2018,09,11,07,26,38.20
2018,09,11,07,27,39.00
2018,09,11,07,28,39.00
2018,09,11,07,29,37.20
2018,09,11,07,30,39.20
2018,09,11,07,31,40.00
2018,09,11,07,32,41.20
2018,09,11,07,33,43.50
2018,09,11,07,34,45.60
2018,09,11,07,35,47.30
2018,09,11,07,36,49.00
2018,09,11,07,37,49.00
2018,09,11,07,38,51.40
2018,09,11,07,39,55.20
2018,09,11,07,40,61.40
2018,09,11,07,41,67.30
2018,09,11,07,42,68.30
2018,09,11,07,43,65.00
2018,09,11,07,44,61.10
2018,09,11,07,45,57.00
2018,09,11,07,46,54.20
2018,09,11,07,47,54.00
2018,09,11,07,48,54.00
2018,09,11,07,49,54.00
2018,09,11,07,50,54.00
2018,09,11,07,51,55.60
2018,09,11,07,52,57.90
2018,09,11,07,53,60.80
2018,09,11,07,54,63.70
2018,09,11,07,55,66.00
2018,09,11,07,56,67.00
2018,09,11,07,57,67.00
2018,09,11,07,58,71.70
2018,09,11,07,59,70.80
2018,09,11,08,00,65.40
2018,09,11,08,01,63.00
2018,09,11,08,02,62.30
2018,09,11,08,03,62.00
2018,09,11,08,04,62.00
2018,09,11,08,05,62.00
2018,09,11,08,06,62.40
2018,09,11,08,07,63.00
2018,09,11,08,08,64.30
2018,09,11,08,09,66.70
2018,09,11,08,10,70.30
2018,09,11,08,11,71.50
2018,09,11,08,12,70.80
2018,09,11,08,13,73.20
2018,09,11,08,14,75.50
2018,09,11,08,15,76.00
2018,09,11,08,16,69.60
2018,09,11,08,17,65.80
2018,09,11,08,18,61.70
2018,09,11,08,19,60.00
2018,09,11,08,20,58.50
2018,09,11,08,21,58.00
2018,09,11,08,22,58.00
2018,09,11,08,23,58.60
2018,09,11,08,24,60.00
2018,09,11,08,25,61.20
2018,09,11,08,26,64.20
2018,09,11,08,27,71.30
2018,09,11,08,28,68.20
2018,09,11,08,29,64.40
2018,09,11,08,30,63.00
2018,09,11,08,31,62.40
2018,09,11,08,32,62.00
2018,09,11,08,33,62.30
2018,09,11,08,34,64.60
2018,09,11,08,35,62.70
2018,09,11,08,36,62.50
2018,09,11,08,37,62.30
2018,09,11,08,38,62.00
2018,09,11,08,39,61.80
2018,09,11,08,40,60.00
2018,09,11,08,41,60.00
2018,09,11,08,42,58.90
2018,09,11,08,43,56.60
2018,09,11,08,44,56.00
2018,09,11,08,45,57.90
2018,09,11,08,46,58.00
2018,09,11,08,47,58.00
2018,09,11,08,48,58.00
2018,09,11,08,49,58.00
2018,09,11,08,50,59.70
2018,09,11,08,51,62.10
2018,09,11,08,52,63.60
2018,09,11,08,53,65.80
2018,09,11,08,54,68.20
2018,09,11,08,55,69.00
2018,09,11,08,56,69.80
2018,09,11,08,57,72.00
2018,09,11,08,58,72.50
2018,09,11,08,59,74.00
2018,09,11,09,00,75.10
2018,09,11,09,01,76.00
2018,09,11,09,02,76.90
2018,09,11,09,03,78.70
2018,09,11,09,04,77.60
2018,09,11,09,05,79.90
2018,09,11,09,06,81.00
2018,09,11,09,07,81.00
2018,09,11,09,08,81.00
2018,09,11,09,09,78.60
2018,09,11,09,10,77.00
2018,09,11,09,11,77.00
2018,09,11,09,12,78.20
2018,09,11,09,13,80.60
2018,09,11,09,14,83.90
2018,09,11,09,15,88.00
2018,09,11,09,16,88.60
2018,09,11,09,17,90.50
2018,09,11,09,18,91.00
2018,09,11,09,19,91.00
2018,09,11,09,20,94.90
2018,09,11,09,21,98.40
2018,09,11,09,22,100.00
2018,09,11,09,23,99.00
2018,09,11,09,24,99.40
2018,09,11,09,25,104.00
2018,09,11,09,26,109.20
2018,09,11,09,27,113.80
2018,09,11,09,28,116.80
2018,09,11,09,29,119.70
2018,09,11,09,30,121.00
2018,09,11,09,31,121.00
2018,09,11,09,32,121.20
2018,09,11,09,33,123.60
2018,09,11,09,34,125.80
2018,09,11,09,35,128.60
2018,09,11,09,36,132.80
2018,09,11,09,37,134.90
2018,09,11,09,38,135.00
2018,09,11,09,39,136.20
2018,09,11,09,40,140.40
2018,09,11,09,41,146.20
2018,09,11,09,42,150.50
2018,09,11,09,43,152.70
2018,09,11,09,44,148.90
2018,09,11,09,45,148.00
2018,09,11,09,46,147.10
2018,09,11,09,47,143.00
2018,09,11,09,48,138.00
2018,09,11,09,49,136.90
2018,09,11,09,50,134.80
2018,09,11,09,51,134.00
2018,09,11,09,52,133.10
2018,09,11,09,53,130.70
2018,09,11,09,54,131.50
2018,09,11,09,55,128.90
2018,09,11,09,56,139.40
2018,09,11,09,57,151.40
2018,09,11,09,58,158.00
2018,09,11,09,59,161.30
2018,09,11,10,00,156.80
2018,09,11,10,01,155.70
2018,09,11,10,02,162.00
2018,09,11,10,03,165.50
2018,09,11,10,04,173.00
2018,09,11,10,05,174.00
2018,09,11,10,06,177.20
2018,09,11,10,07,179.10
2018,09,11,10,08,180.20
2018,09,11,10,09,177.20
2018,09,11,10,10,184.90
2018,09,11,10,11,202.10
2018,09,11,10,12,211.80
2018,09,11,10,13,210.50
2018,09,11,10,14,209.40
2018,09,11,10,15,220.40
2018,09,11,10,16,231.90
2018,09,11,10,17,239.20
2018,09,11,10,18,236.80
2018,09,11,10,19,233.40
2018,09,11,10,20,241.50
2018,09,11,10,21,251.40
2018,09,11,10,22,264.50
2018,09,11,10,23,271.30
2018,09,11,10,24,275.50
2018,09,11,10,25,270.10
2018,09,11,10,26,259.90
2018,09,11,10,27,246.20
2018,09,11,10,28,238.00
2018,09,11,10,29,230.20
2018,09,11,10,30,211.10
2018,09,11,10,31,201.40
2018,09,11,10,32,195.10
2018,09,11,10,33,182.00
2018,09,11,10,34,170.60
2018,09,11,10,35,164.00
2018,09,11,10,36,160.40
2018,09,11,10,37,161.20
2018,09,11,10,38,159.80
2018,09,11,10,39,162.50
2018,09,11,10,40,162.60
2018,09,11,10,41,163.00
2018,09,11,10,42,163.00
2018,09,11,10,43,173.10
2018,09,11,10,44,178.60
2018,09,11,10,45,172.60
2018,09,11,10,46,178.80
2018,09,11,10,47,177.40
2018,09,11,10,48,166.60
2018,09,11,10,49,156.80
2018,09,11,10,50,151.20
2018,09,11,10,51,149.50
2018,09,11,10,52,154.20
2018,09,11,10,53,161.60
2018,09,11,10,54,162.60
2018,09,11,10,55,160.00
2018,09,11,10,56,158.40
2018,09,11,10,57,159.30
2018,09,11,10,58,162.70
2018,09,11,10,59,168.10
2018,09,11,11,00,162.00
2018,09,11,11,01,162.90
2018,09,11,11,02,164.20
2018,09,11,11,03,164.10
2018,09,11,11,04,162.90
2018,09,11,11,05,164.50
2018,09,11,11,06,171.10
2018,09,11,11,07,173.80
2018,09,11,11,08,180.10
2018,09,11,11,09,181.90
2018,09,11,11,10,179.50
2018,09,11,11,11,174.70
2018,09,11,11,12,178.50
2018,09,11,11,13,181.60
2018,09,11,11,14,182.10
2018,09,11,11,15,178.10
2018,09,11,11,16,174.50
2018,09,11,11,17,169.30
2018,09,11,11,18,167.20
2018,09,11,11,19,181.70
2018,09,11,11,20,183.50
2018,09,11,11,21,174.80
2018,09,11,11,22,169.60
2018,09,11,11,23,171.40
2018,09,11,11,24,165.90
2018,09,11,11,25,165.30
2018,09,11,11,26,186.20
2018,09,11,11,27,262.50
2018,09,11,11,28,295.00
2018,09,11,11,29,295.00
2018,09,11,11,30,295.00
2018,09,11,11,31,391.60
2018,09,11,11,32,529.80
2018,09,11,11,33,496.00
2018,09,11,11,34,496.00
2018,09,11,11,35,500.40
2018,09,11,11,36,540.00
2018,09,11,11,37,642.10
2018,09,11,11,38,817.00
2018,09,11,11,39,817.00
2018,09,11,11,40,817.00
2018,09,11,11,41,782.50
2018,09,11,11,42,489.00
2018,09,11,11,43,471.40
2018,09,11,11,44,445.00
2018,09,11,11,45,529.00
2018,09,11,11,46,487.60
2018,09,11,11,47,425.40
2018,09,11,11,48,473.00
2018,09,11,11,49,473.00
2018,09,11,11,50,473.00
2018,09,11,11,51,473.00
2018,09,11,11,52,761.20
2018,09,11,11,53,792.00
2018,09,11,11,54,748.80
2018,09,11,11,55,727.60
2018,09,11,11,56,730.30
2018,09,11,11,57,752.90
2018,09,11,11,58,745.30
2018,09,11,11,59,733.70
2018,09,11,12,00,756.20
2018,09,11,12,01,749.10
2018,09,11,12,02,758.40
2018,09,11,12,03,767.50
2018,09,11,12,04,753.30
2018,09,11,12,05,759.60
2018,09,11,12,06,753.30
2018,09,11,12,07,761.00
2018,09,11,12,08,777.60
2018,09,11,12,09,786.60
2018,09,11,12,10,794.60
2018,09,11,12,11,793.20
2018,09,11,12,12,758.50
2018,09,11,12,13,697.00
2018,09,11,12,14,676.20
2018,09,11,12,15,675.80
2018,09,11,12,16,676.10
2018,09,11,12,17,684.50
2018,09,11,12,18,696.40
2018,09,11,12,19,706.20
2018,09,11,12,20,679.50
2018,09,11,12,21,688.80
2018,09,11,12,22,659.50
2018,09,11,12,23,377.00
2018,09,11,12,24,409.10
2018,09,11,12,25,424.20
2018,09,11,12,26,436.00
2018,09,11,12,27,436.00
2018,09,11,12,28,446.00
2018,09,11,12,29,448.00
2018,09,11,12,30,457.10
2018,09,11,12,31,444.80
2018,09,11,12,32,463.20
2018,09,11,12,33,494.50
2018,09,11,12,34,500.60
2018,09,11,12,35,506.70
2018,09,11,12,36,493.10
2018,09,11,12,37,539.50
2018,09,11,12,38,577.20
2018,09,11,12,39,558.30
2018,09,11,12,40,242.90
2018,09,11,12,41,251.50
2018,09,11,12,42,248.00
2018,09,11,12,43,509.30
2018,09,11,12,44,657.10
2018,09,11,12,45,662.00
2018,09,11,12,46,655.00
2018,09,11,12,47,684.80
2018,09,11,12,48,699.70
2018,09,11,12,49,700.20
2018,09,11,12,50,706.20
2018,09,11,12,51,716.70
2018,09,11,12,52,663.50
2018,09,11,12,53,680.30
2018,09,11,12,54,695.50
2018,09,11,12,55,727.80
2018,09,11,12,56,745.60
2018,09,11,12,57,751.10
2018,09,11,12,58,751.90
2018,09,11,12,59,743.20
2018,09,11,13,00,743.60
2018,09,11,13,01,747.60
2018,09,11,13,02,747.30
2018,09,11,13,03,744.00
2018,09,11,13,04,745.50
2018,09,11,13,05,758.20
2018,09,11,13,06,763.30
2018,09,11,13,07,765.00
2018,09,11,13,08,765.80
2018,09,11,13,09,767.60
2018,09,11,13,10,766.60
2018,09,11,13,11,768.00
2018,09,11,13,12,768.00
2018,09,11,13,13,770.80
2018,09,11,13,14,770.30
2018,09,11,13,15,772.20
2018,09,11,13,16,773.60
2018,09,11,13,17,772.90
2018,09,11,13,18,770.00
2018,09,11,13,19,772.10
2018,09,11,13,20,774.70
2018,09,11,13,21,774.40
2018,09,11,13,22,761.30
2018,09,11,13,23,730.30
2018,09,11,13,24,693.40
2018,09,11,13,25,671.20
2018,09,11,13,26,626.90
2018,09,11,13,27,643.80
2018,09,11,13,28,681.70
2018,09,11,13,29,726.50
2018,09,11,13,30,769.40
2018,09,11,13,31,775.00
2018,09,11,13,32,772.60
2018,09,11,13,33,760.00
2018,09,11,13,34,753.00
2018,09,11,13,35,740.70
2018,09,11,13,36,729.20
2018,09,11,13,37,738.20
2018,09,11,13,38,750.40
2018,09,11,13,39,741.00
2018,09,11,13,40,736.80
2018,09,11,13,41,730.00
2018,09,11,13,42,718.50
2018,09,11,13,43,703.80
2018,09,11,13,44,675.40
2018,09,11,13,45,704.50
2018,09,11,13,46,725.00
2018,09,11,13,47,742.20
2018,09,11,13,48,744.80
2018,09,11,13,49,738.00
2018,09,11,13,50,734.60
2018,09,11,13,51,719.50
2018,09,11,13,52,713.30
2018,09,11,13,53,715.00
2018,09,11,13,54,719.20
2018,09,11,13,55,723.50
2018,09,11,13,56,721.80
2018,09,11,13,57,720.40
2018,09,11,13,58,720.30
2018,09,11,13,59,727.00
2018,09,11,14,00,731.00
2018,09,11,14,01,731.30
2018,09,11,14,02,737.80
2018,09,11,14,03,737.30
2018,09,11,14,04,737.50
2018,09,11,14,05,735.80
2018,09,11,14,06,735.00
2018,09,11,14,07,734.90
2018,09,11,14,08,733.40
2018,09,11,14,09,735.00
2018,09,11,14,10,734.00
2018,09,11,14,11,731.70
2018,09,11,14,12,729.40
2018,09,11,14,13,730.80
2018,09,11,14,14,730.60
2018,09,11,14,15,729.00
2018,09,11,14,16,728.50
2018,09,11,14,17,728.00
2018,09,11,14,18,728.00
2018,09,11,14,19,727.80
2018,09,11,14,20,726.50
2018,09,11,14,21,727.30
2018,09,11,14,22,726.00
2018,09,11,14,23,727.30
2018,09,11,14,24,726.30
2018,09,11,14,25,724.10
2018,09,11,14,26,724.00
2018,09,11,14,27,724.00
2018,09,11,14,28,722.90
2018,09,11,14,29,723.40
2018,09,11,14,30,724.00
2018,09,11,14,31,722.00
2018,09,11,14,32,722.50
2018,09,11,14,33,724.00
2018,09,11,14,34,724.00
2018,09,11,14,35,717.00
2018,09,11,14,36,712.30
2018,09,11,14,37,703.40
2018,09,11,14,38,685.50
2018,09,11,14,39,700.20
2018,09,11,14,40,658.80
2018,09,11,14,41,622.00
2018,09,11,14,42,420.50
2018,09,11,14,43,354.00
2018,09,11,14,44,178.00
2018,09,11,14,45,334.30
2018,09,11,14,46,478.60
2018,09,11,14,47,496.10
2018,09,11,14,48,492.20
2018,09,11,14,49,514.50
2018,09,11,14,50,654.00
2018,09,11,14,51,687.60
2018,09,11,14,52,710.20
2018,09,11,14,53,716.60
2018,09,11,14,54,710.80
2018,09,11,14,55,713.20
2018,09,11,14,56,715.90
2018,09,11,14,57,713.00
2018,09,11,14,58,712.00
2018,09,11,14,59,712.00
2018,09,11,15,00,703.90
2018,09,11,15,01,701.20
2018,09,11,15,02,696.00
2018,09,11,15,03,693.50
2018,09,11,15,04,689.70
2018,09,11,15,05,679.40
2018,09,11,15,06,670.80
2018,09,11,15,07,665.60
2018,09,11,15,08,647.00
2018,09,11,15,09,636.70
2018,09,11,15,10,651.90
2018,09,11,15,11,661.60
2018,09,11,15,12,659.80
2018,09,11,15,13,600.20
2018,09,11,15,14,630.40
2018,09,11,15,15,665.20
2018,09,11,15,16,646.90
2018,09,11,15,17,644.20
2018,09,11,15,18,626.80
2018,09,11,15,19,637.90
2018,09,11,15,20,613.40
2018,09,11,15,21,597.70
2018,09,11,15,22,611.60
2018,09,11,15,23,626.30
2018,09,11,15,24,651.40
2018,09,11,15,25,664.00
2018,09,11,15,26,671.00
2018,09,11,15,27,647.00
2018,09,11,15,28,646.50
2018,09,11,15,29,667.10
2018,09,11,15,30,680.20
2018,09,11,15,31,659.70
2018,09,11,15,32,618.40
2018,09,11,15,33,624.00
2018,09,11,15,34,615.60
2018,09,11,15,35,599.10
2018,09,11,15,36,640.60
2018,09,11,15,37,630.00
2018,09,11,15,38,591.30
2018,09,11,15,39,597.50
2018,09,11,15,40,609.60
2018,09,11,15,41,580.50
2018,09,11,15,42,593.10
2018,09,11,15,43,567.30
2018,09,11,15,44,562.00
2018,09,11,15,45,592.40
2018,09,11,15,46,563.20
2018,09,11,15,47,587.20
2018,09,11,15,48,562.20
2018,09,11,15,49,578.00
2018,09,11,15,50,596.00
2018,09,11,15,51,619.10
2018,09,11,15,52,629.00
2018,09,11,15,53,187.70
2018,09,11,15,54,202.00
2018,09,11,15,55,202.00
2018,09,11,15,56,425.30
2018,09,11,15,57,587.00
2018,09,11,15,58,515.40
2018,09,11,15,59,486.70
2018,09,11,16,00,359.00
2018,09,11,16,01,394.50
2018,09,11,16,02,459.00
2018,09,11,16,03,461.20
2018,09,11,16,04,426.10
2018,09,11,16,05,425.10
2018,09,11,16,06,371.90
2018,09,11,16,07,298.00
2018,09,11,16,08,259.00
2018,09,11,16,09,255.00
2018,09,11,16,10,305.90
2018,09,11,16,11,318.20
2018,09,11,16,12,297.20
2018,09,11,16,13,329.70
2018,09,11,16,14,324.70
2018,09,11,16,15,329.50
2018,09,11,16,16,340.50
2018,09,11,16,17,318.20
2018,09,11,16,18,278.00
2018,09,11,16,19,225.70
2018,09,11,16,20,201.30
2018,09,11,16,21,195.00
2018,09,11,16,22,195.00
2018,09,11,16,23,205.80
2018,09,11,16,24,209.40
2018,09,11,16,25,174.00
2018,09,11,16,26,227.20
2018,09,11,16,27,243.50
2018,09,11,16,28,214.00
2018,09,11,16,29,201.60
2018,09,11,16,30,178.90
2018,09,11,16,31,161.20
2018,09,11,16,32,149.70
2018,09,11,16,33,136.60
2018,09,11,16,34,127.00
2018,09,11,16,35,122.40
2018,09,11,16,36,121.00
2018,09,11,16,37,120.40
2018,09,11,16,38,117.00
2018,09,11,16,39,114.20
2018,09,11,16,40,114.00
2018,09,11,16,41,114.70
2018,09,11,16,42,118.10
2018,09,11,16,43,129.80
2018,09,11,16,44,142.20
2018,09,11,16,45,132.90
2018,09,11,16,46,139.40
2018,09,11,16,47,153.60
2018,09,11,16,48,169.40
2018,09,11,16,49,190.90
2018,09,11,16,50,201.40
2018,09,11,16,51,202.30
2018,09,11,16,52,181.00
2018,09,11,16,53,205.40
2018,09,11,16,54,203.30
2018,09,11,16,55,203.40
2018,09,11,16,56,190.80
2018,09,11,16,57,169.60
2018,09,11,16,58,158.50
2018,09,11,16,59,160.00
2018,09,11,17,00,154.80
2018,09,11,17,01,148.90
2018,09,11,17,02,146.30
2018,09,11,17,03,145.40
2018,09,11,17,04,140.80
2018,09,11,17,05,135.60
2018,09,11,17,06,132.80
2018,09,11,17,07,129.10
2018,09,11,17,08,125.40
2018,09,11,17,09,119.10
2018,09,11,17,10,113.10
2018,09,11,17,11,110.10
2018,09,11,17,12,106.60
2018,09,11,17,13,104.30
2018,09,11,17,14,100.60
2018,09,11,17,15,97.40
2018,09,11,17,16,94.30
2018,09,11,17,17,92.10
2018,09,11,17,18,90.40
2018,09,11,17,19,87.00
2018,09,11,17,20,84.10
2018,09,11,17,21,80.60
2018,09,11,17,22,79.00
2018,09,11,17,23,78.00
2018,09,11,17,24,77.00
2018,09,11,17,25,76.20
2018,09,11,17,26,73.90
2018,09,11,17,27,71.60
2018,09,11,17,28,69.70
2018,09,11,17,29,67.00
2018,09,11,17,30,63.70
2018,09,11,17,31,63.00
2018,09,11,17,32,63.00
2018,09,11,17,33,63.00
2018,09,11,17,34,62.60
2018,09,11,17,35,62.00
2018,09,11,17,36,62.00
2018,09,11,17,37,62.00
2018,09,11,17,38,62.10
2018,09,11,17,39,63.00
2018,09,11,17,40,62.60
2018,09,11,17,41,62.00
2018,09,11,17,42,62.00
2018,09,11,17,43,62.00
2018,09,11,17,44,62.00
2018,09,11,17,45,62.00
2018,09,11,17,46,62.00
2018,09,11,17,47,62.00
2018,09,11,17,48,62.00
2018,09,11,17,49,62.00
2018,09,11,17,50,62.00
2018,09,11,17,51,62.30
2018,09,11,17,52,63.00
2018,09,11,17,53,63.00
2018,09,11,17,54,63.00
2018,09,11,17,55,63.00
2018,09,11,17,56,62.00
2018,09,11,17,57,62.00
2018,09,11,17,58,62.00
2018,09,11,17,59,60.80
2018,09,11,18,00,60.00
2018,09,11,18,01,58.20
2018,09,11,18,02,58.00
2018,09,11,18,03,58.00
2018,09,11,18,04,58.00
2018,09,11,18,05,58.00
2018,09,11,18,06,58.00
2018,09,11,18,07,59.80
2018,09,11,18,08,60.00
2018,09,11,18,09,60.70
2018,09,11,18,10,62.00
2018,09,11,18,11,62.00
2018,09,11,18,12,62.00
2018,09,11,18,13,62.00
2018,09,11,18,14,62.00